Погода Нагорный

Погода Нагорный : погода сейчас, прогноз погоды и архив. Всё, что Вы хотите узнать о погоде Нагорный!

Хотите узнать прогноз погоды Нагорный? Тогда Вам сюда: Погода Нагорный

Поиск расширенной информации на нашем сайте:

Другие новости

Новости СМИ2

Главная страница сайта

Новости сайта

03.07.2017

Напоминаем, что на нашем специализированном сайте Метеоцентр.Азия вы можете получить высокодетализированные автоматические прогнозы погоды по пунктам России, СНГ и мира в авиационном формате (включающие направление и скорость ветра, видимость, явления погоды, количество и форму облачности, нижнюю и верхнюю границу облачности).


Погода Нагорный - сегодня

Время (UTC), дата Ветер
(°,м/с) 
Видим.   Явления Облачность Т
(°С)
Тd
(°С)
f(%) Тe
(°С)
Pmin
(гПа)
dP
(гПа)
Po
(мм)
O2
(г/м3)
Тmin Tmax R s Состояние
почвы
06 08.02.18 110 (В) 20000 м    ясно 
-22.5 -28.2 60 -23  1012.7  0.9  676  298           
09 08.02.18 тихо ()   20000 м    ясно 
-25.5 -30.1 65 -26  1015.2  1.5  681  304           
12 08.02.18 240 (ЮЗ) 20000 м    ясно 
-29.6 -32.6 75 -30  1019.5  679  308    -22.2       
15 08.02.18 140 (ЮВ) 20000 м    ясно 
-28.6 -31.7 75 -32  1020.5  1.4  680  308           
18 08.02.18 040 (СВ) 20000 м    ясно 
-26.1 -30 70 -27  1019.8  0.4  680  305           
21 08.02.18 050 (СВ) 20000 м    ясно 
-26.6 -31.2 65 -30  1020.9  0.8  680  305           
00 09.02.18 020 (С) 20000 м    ясно 
-27.7 -32.3 65 -33  1022.2  0.6  681  307  -29.6      равномерный
сухой снег
100% 
03 09.02.18 010 (С) 20000 м    8/0 средняя 
[As op]
-27 -32.5 60 -34  1022.7  0.8  682  306           
06 09.02.18 010 (С) 20000 м    8/0 средняя 
[As op]
-26.8 -33.3 54 -34  1022.2  -0.3  681  306           
09 09.02.18 010 (С) 20000 м    9/0 средняя 
[As op]
-27.7 -33.1 60 -35  1023.4  0.6  682  307           
12 09.02.18 020 (С) 20000 м    9/0 средняя 
[As op]
-28.1 -32.7 65 -36  1023.9  0.3  682  308    -26.5       
15 09.02.18 020 (С) 20000 м    ясно 
-30.2 -35.5 60 -38  1024.6  -0.3  682  311           
18 09.02.18 020 (С) 20000 м    ясно 
-30.5 -35.9 59 -40  1023.3  -1.4  681  311           
09 21.02.18 350 (С) 20000 м    ясно 
-21.3 -28 55 -22  1014.9  1.1  678  298           
09 22.02.18 340 (С) 20000 м    ясно 
-23.4 -30 55 -24  1018  0.9  680  301           
09 24.02.18 020 (С) 20000 м    ясно 
-28.1 -31.2 75 -29  1032.4  688  311           
06 11.03.18 180 (Ю) 20000 м    10/0 
-23 -27 70 -23  1014.2  0.4  684  302           
09 12.03.18 090 (В) 20000 м    ясно 
-27.4 -31.2 70 -31  1025.2  0.2  683  308           
00 03.04.18 360 (С) 20000 м    6/0 средняя 
[As op]
-15.4 -22.4 55 -15  1023.7  2.5  686  294  -16      12  равномерный
сухой снег
100% 
03 07.04.18 020 (С) 20000 м    8/0 средняя 
[As op]
-6.2 -15.5 48 -11  1010.5  -1.3  680  281           
21 11.04.18 тихо ()   20000 м    ясно 
-13.7 -18 70 -14  1022.2  0.8  685  292           
06 25.04.18 030 (СВ) 20000 м    6/0 верхняя 
[Ci]
+2.1 -8.5 45 +1  1009.9  0.3  681  273           
21 06.05.18 240 (ЮЗ) 20000 м    ясно 
+0.5 -4.9 67 -1  1018.4  687  277           
00 08.05.18 220 (ЮЗ) 20000 м    6/0 верхняя 
[Ci fib]
+10.7 -0 47 +10  1019  -0.4  690  267  -4        влажная 
03 27.05.18 300 (СЗ) 20000 м    ясно 
+18.8 +2.9 35 +20  1008  -1.4  684  257           
Время (UTC), дата Ветер
(°,м/с) 
Видим.   Явления Облачность Т
(°С)
Тd
(°С)
f(%) Тe
(°С)
Pmin
(гПа)
dP
(гПа)
Po
(мм)
O2
(г/м3)
Тmin Tmax R s Состояние
почвы

Для получения пояснительной информации подведите курсор к названию столбца.

ПОГОДА Нагорный - архив

Всё, что Вы хотите узнать о погоде Нагорный - удобно и подробно!

Выберите нужную дату (начиная с 1 января 2015* года) и нажмите кнопку "Найти".
Будут отображены архивные сводки погоды по пункту Нагорный, начиная с указанной даты.


Отображать данные в формате CSV (для использования в таблицах Excel)


Внимание! Наш архив погоды предназначен исключительно для личного некоммерческого использования в познавательных целях. Если Вам необходимы официальные справки о состоянии погоды (для производственных, юридических, коммерческих и т.п. целей), обращайтесь в органы Росгидромета.

*Примечание: данная дата относится к архиву по метеостанциям СССР (Россия, СНГ, Балтия).
Архив по метеостанциям Зарубежной Европы и Азии (кроме Китая) хранится 10 дней, по другим регионам земного шара (Китай, Африка, Америка, Австралия, Океания) - 1 день.

Нагорный - район местоположения метеостанции


Название, широта, долгота, высота метеостанции:
Нагорный 56°ш. 124.9°д. 861 м над ур. моря [Российская Федерация]

Дополнительная информация

В oтличие oт бoльшинства пoгoдных сайтoв мы публикуем пoдрoбную метеoинфoрмацию в детальнoм прoфессиoнальнoм фoрмате.

Характеристики температуры и влажнoсти вoздуха измеряются на высoте 2 м в тени вдали oт зданий и деревьев.
Скoрoсть ветра измеряется на высoте 10 м (на урoвне рoста челoвека скoрoсть ветра ниже в 1.5-2 раза). Если метеoстанция нахoдится в гoрoде или в лесу, тo скoрoсть ветра занижена на 2-4 м/с пo сравнению с oткрытым местoм. Скoрoсть ветра над акватoриями крупных рек и oзёр, а также на вершинах хoлмoв на 2-5 м/с выше, чем в oбычных услoвиях.
Атмoсфернoе давление в разных тoчках местнoсти мoжет значительнo oтличаться oт давления на метеoстанции, в зависимoсти oт услoвий рельефа (при пoдъёме на 10 м давление пoнижается примернo на 1 мм рт.ст.).